Tracking 29089 objects as of 12-Jul-2024
HD Live streaming from Space Station
objects crossing your sky now

COSMOS 1275 DEB

Track COSMOS 1275 DEB now!
10-day predictions


NORAD ID: 12673
Int'l Code: 1981-053AD
Perigee: 844.3 km
Apogee: 909.8 km
Inclination: 82.9 °
Period: 102.4 minutes
Semi major axis: 7248 km
RCS: 0.1532 m2 (medium)
Launch date: June 4, 1981
Source: Commonwealth of Independent States (former USSR) (CIS)
Launch site: PLESETSK MISSILE AND SPACE COMPLEX (PKMTR)

Note: This is SATELLITE DEBRIS
Your satellite tracking list
Your tracking list is empty




NASA's NSSDC Master Catalog

Two Line Element Set (TLE):
1 12673U 81053AD  24194.18983797  .00003262  00000-0  19294-2 0  9998
2 12673  82.8520 342.9305 0045187 133.3388  41.3005 14.06933605175795
Source of the keplerian elements: AFSPC